GW1216 Weather Reports


Display with metric or nautical units.
time (UTC)temp
F
wind
direction
speed
MPH
gust
MPH
rain 1hr
in
rain 24hr
in
rain mn
in
humidity
%
barometer
mb
20260508074904 44 195 0.0 3.0 0.00 0.00 0.00 43 1024.6
20260508074401 45 246 0.0 3.0 0.00 0.00 0.00 43 1024.8
20260508073858 45 237 2.0 4.0 0.00 0.00 0.00 42 1025.0
20260508073356 45 199 3.0 4.0 0.00 0.00 0.00 43 1024.9
20260508072852 45 171 1.0 4.0 0.00 0.00 0.00 42 1024.8
20260508072348 44 215 2.0 4.0 0.00 0.00 0.00 43 1024.9
20260508071846 44 186 1.0 3.0 0.00 0.00 0.00 45 1025.3
20260508071345 43 5 0.0 3.0 0.00 0.00 0.00 47 1025.0
20260508070842 44 68 1.0 3.0 0.00 0.00 0.00 45 1025.0
20260508070340 43 123 1.0 2.0 0.00 0.00 0.00 46 1025.0
20260508065837 43 72 1.0 3.0 0.00 0.00 0.00 47 1025.0
20260508065335 43 64 2.0 2.0 0.00 0.00 0.00 47 1025.3
20260508064833 43 63 2.0 3.0 0.00 0.00 0.00 46 1025.0
20260508064330 43 71 2.0 2.0 0.00 0.00 0.00 45 1025.1
20260508063828 44 93 2.0 3.0 0.00 0.00 0.00 45 1025.1
20260508063325 44 84 2.0 4.0 0.00 0.00 0.00 44 1025.1
20260508062822 44 77 1.0 3.0 0.00 0.00 0.00 43 1025.0
20260508062320 44 82 1.0 3.0 0.00 0.00 0.00 43 1025.1
20260508061816 43 71 2.0 3.0 0.00 0.00 0.00 45 1025.1
20260508061314 43 76 2.0 3.0 0.00 0.00 0.00 45 1025.3
20260508060810 43 71 2.0 3.0 0.00 0.00 0.00 45 1025.3
20260508060308 43 88 2.0 3.0 0.00 0.00 0.00 45 1025.1
20260508055803 43 100 1.0 2.0 0.00 0.00 0.00 45 1025.0
20260508055301 43 51 2.0 3.0 0.00 0.00 0.00 45 1025.3
20260508054756 42 34 2.0 3.0 0.00 0.00 0.00 47 1025.3
20260508054255 41 80 0.0 2.0 0.00 0.00 0.00 47 1025.1
20260508053751 42 66 0.0 2.0 0.00 0.00 0.00 47 1025.1
20260508053249 42 50 2.0 3.0 0.00 0.00 0.00 47 1025.1
20260508052746 42 53 0.0 2.0 0.00 0.00 0.00 46 1025.3
20260508052243 42 69 2.0 3.0 0.00 0.00 0.00 46 1025.0
20260508051739 40 69 1.0 2.0 0.00 0.00 0.00 48 1025.1
20260508051234 40 92 1.0 2.0 0.00 0.00 0.00 48 1025.1
20260508050731 40 49 2.0 2.0 0.00 0.00 0.00 48 1025.0
20260508050229 41 50 1.0 2.0 0.00 0.00 0.00 46 1025.3
20260508045724 41 58 1.0 2.0 0.00 0.00 0.00 46 1025.0
20260508045222 41 67 2.0 2.0 0.00 0.00 0.00 46 1025.3
20260508044720 41 113 0.0 3.0 0.00 0.00 0.00 47 1025.1
20260508044216 41 119 0.0 3.0 0.00 0.00 0.00 46 1025.1
20260508043712 41 135 0.0 3.0 0.00 0.00 0.00 45 1025.0
20260508043210 42 79 2.0 3.0 0.00 0.00 0.00 45 1025.1
20260508042706 42 86 2.0 3.0 0.00 0.00 0.00 43 1025.1
20260508042204 42 77 1.0 2.0 0.00 0.00 0.00 43 1025.1
20260508041700 43 249 0.0 2.0 0.00 0.00 0.00 43 1025.1
20260508041157 42 52 2.0 3.0 0.00 0.00 0.00 44 1025.3
20260508040653 42 24 1.0 2.0 0.00 0.00 0.00 44 1025.3
20260508040151 43 61 2.0 3.0 0.00 0.00 0.00 42 1025.4
20260508035648 44 76 0.0 2.0 0.00 0.00 0.00 41 1025.4
20260508035145 44 61 1.0 2.0 0.00 0.00 0.00 41 1025.3
20260508034642 43 65 1.0 2.0 0.00 0.00 0.00 42 1025.4
20260508034139 44 214 0.0 1.0 0.00 0.00 0.00 41 1025.3
20260508033636 43 115 1.0 2.0 0.00 0.00 0.00 43 1025.1
20260508033134 43 75 0.0 3.0 0.00 0.00 0.00 43 1025.3
20260508032630 42 72 1.0 2.0 0.00 0.00 0.00 45 1025.0
20260508032128 43 89 2.0 3.0 0.00 0.00 0.00 45 1025.0
20260508031625 43 93 2.0 3.0 0.00 0.00 0.00 45 1025.1
20260508031121 44 130 2.0 2.0 0.00 0.00 0.00 43 1024.9
20260508030618 44 149 0.0 3.0 0.00 0.00 0.00 43 1024.9
20260508030116 44 96 2.0 3.0 0.00 0.00 0.00 44 1025.0
20260508025612 44 177 2.0 3.0 0.00 0.00 0.00 44 1024.9
20260508025109 44 74 2.0 3.0 0.00 0.00 0.00 43 1024.6
20260508024605 44 133 2.0 3.0 0.00 0.00 0.00 42 1024.6
20260508024102 44 86 1.0 2.0 0.00 0.00 0.00 43 1024.6
20260508023558 44 54 2.0 3.0 0.00 0.00 0.00 43 1024.5
20260508023056 44 353 1.0 4.0 0.00 0.00 0.00 44 1024.8
20260508022551 44 47 2.0 3.0 0.00 0.00 0.00 44 1024.5
20260508022049 45 26 3.0 3.0 0.00 0.00 0.00 41 1024.5
20260508021544 45 11 2.0 4.0 0.00 0.00 0.00 43 1024.4
20260508021040 46 36 3.0 4.0 0.00 0.00 0.00 42 1024.5
20260508020538 47 295 0.0 2.0 0.00 0.00 0.00 39 1024.4
20260508020036 48 324 2.0 3.0 0.00 0.00 0.00 38 1024.5
20260508015533 49 265 4.0 7.0 0.00 0.00 0.00 37 1024.4
20260508015030 50 252 3.0 9.0 0.00 0.00 0.00 36 1024.2
20260508014526 51 229 6.0 13.0 0.00 0.00 0.00 35 1024.2
20260508014022 51 288 5.0 11.0 0.00 0.00 0.00 35 1024.2
20260508013519 52 250 8.0 13.0 0.00 0.00 0.00 34 1024.1
20260508013016 52 348 0.0 13.0 0.00 0.00 0.00 34 1024.1
20260508012513 53 252 4.0 11.0 0.00 0.00 0.00 33 1024.2
20260508012011 53 256 3.0 20.0 0.00 0.00 0.00 34 1024.2
20260508011509 53 233 3.0 13.0 0.00 0.00 0.00 32 1024.1
20260508011006 55 243 8.0 9.0 0.00 0.00 0.00 31 1024.1
20260508010503 54 286 4.0 20.0 0.00 0.00 0.00 32 1024.0
20260508010000 54 277 3.0 13.0 0.00 0.00 0.00 32 1024.0
20260508005456 53 263 11.0 21.0 0.00 0.00 0.00 32 1024.0
20260508004953 53 264 11.0 22.0 0.00 0.00 0.00 32 1024.0
20260508004449 55 254 15.0 22.0 0.00 0.00 0.00 32 1024.0
20260508003946 54 235 18.0 22.0 0.00 0.00 0.00 32 1024.0
20260508003443 56 253 3.0 15.0 0.00 0.00 0.00 32 1023.8
20260508002940 56 1 7.0 15.0 0.00 0.00 0.00 30 1024.0
20260508002436 57 158 2.0 9.0 0.00 0.00 0.00 31 1023.8
20260508001932 55 322 4.0 14.0 0.00 0.00 0.00 34 1024.1
20260508001429 54 355 8.0 13.0 0.00 0.00 0.00 35 1024.0
20260508000925 53 53 8.0 15.0 0.00 0.00 0.00 34 1024.1
20260508000421 54 69 8.0 17.0 0.00 0.00 0.00 34 1024.0
20260507235918 55 46 11.0 19.0 0.00 0.00 0.00 35 1024.2
20260507235415 54 57 8.0 14.0 0.00 0.00 0.00 37 1024.2
20260507234912 53 45 7.0 21.0 0.00 0.00 0.00 35 1024.0
20260507234409 52 26 15.0 18.0 0.00 0.00 0.00 35 1024.1
20260507233906 52 32 15.0 15.0 0.00 0.00 0.00 37 1024.0
20260507233403 52 32 6.0 12.0 0.00 0.00 0.00 38 1024.1
20260507232902 53 25 8.0 21.0 0.00 0.00 0.00 33 1024.1
20260507232357 53 31 11.0 20.0 0.00 0.00 0.00 34 1024.0
20260507231855 55 20 11.0 18.0 0.00 0.00 0.00 33 1024.1
20260507231351 55 61 10.0 16.0 0.00 0.00 0.00 35 1023.8
20260507230847 55 15 10.0 13.0 0.00 0.00 0.00 30 1023.8
20260507230345 57 355 2.0 12.0 0.00 0.00 0.00 30 1023.7
20260507225844 59 304 4.0 13.0 0.00 0.00 0.00 29 1023.8
20260507225341 59 241 13.0 20.0 0.00 0.00 0.00 27 1023.8
20260507224837 59 287 9.0 14.0 0.00 0.00 0.00 28 1023.8
20260507224334 59 311 9.0 15.0 0.00 0.00 0.00 32 1023.6
20260507223830 59 343 7.0 16.0 0.00 0.00 0.00 27 1023.8
20260507223326 59 344 3.0 7.0 0.00 0.00 0.00 31 1023.8
20260507222824 59 336 6.0 16.0 0.00 0.00 0.00 29 1023.8
20260507222320 60 227 14.0 17.0 0.00 0.00 0.00 29 1024.0
20260507221817 59 300 2.0 11.0 0.00 0.00 0.00 27 1023.8
20260507221314 58 354 6.0 13.0 0.00 0.00 0.00 30 1023.8
20260507220809 56 88 3.0 14.0 0.00 0.00 0.00 28 1024.2
20260507220308 59 10 6.0 13.0 0.00 0.00 0.00 32 1024.0
20260507215804 55 282 7.0 8.0 0.00 0.00 0.00 30 1024.1
20260507215302 54 289 3.0 10.0 0.00 0.00 0.00 30 1024.1
20260507214758 55 288 9.0 16.0 0.00 0.00 0.00 30 1024.2
20260507214255 53 8 12.0 12.0 0.00 0.00 0.00 34 1024.4
20260507213750 56 1 8.0 18.0 0.00 0.00 0.00 32 1024.2
20260507213248 52 56 6.0 11.0 0.00 0.00 0.00 34 1024.5
20260507212745 53 15 11.0 21.0 0.00 0.00 0.00 33 1024.6
20260507212241 56 6 3.0 8.0 0.00 0.00 0.00 30 1024.5
20260507211738 58 253 11.0 17.0 0.00 0.00 0.00 29 1024.5
20260507211234 59 292 3.0 15.0 0.00 0.00 0.00 31 1024.6
20260507210731 58 229 15.0 22.0 0.00 0.00 0.00 29 1024.6
20260507210228 56 229 8.0 13.0 0.00 0.00 0.00 31 1024.5
20260507205724 56 349 10.0 18.0 0.00 0.00 0.00 30 1025.0
20260507205221 56 28 4.0 17.0 0.00 0.00 0.00 29 1025.0
20260507204717 55 327 4.0 13.0 0.00 0.00 0.00 31 1024.8
20260507204215 55 13 9.0 14.0 0.00 0.00 0.00 29 1025.0
20260507203713 56 350 7.0 16.0 0.00 0.00 0.00 28 1025.0
20260507203210 54 30 5.0 14.0 0.00 0.00 0.00 32 1025.0
20260507202706 54 0 5.0 9.0 0.00 0.00 0.00 29 1025.3
20260507202202 54 321 10.0 13.0 0.00 0.00 0.00 35 1025.1
20260507201657 54 303 6.0 8.0 0.00 0.00 0.00 30 1025.3
20260507201154 53 333 5.0 10.0 0.00 0.00 0.00 30 1025.4
20260507200650 54 75 7.0 13.0 0.00 0.00 0.00 30 1025.3
20260507200146 54 298 10.0 16.0 0.00 0.00 0.00 30 1025.3
20260507195643 53 349 4.0 10.0 0.00 0.00 0.00 32 1025.4
20260507195140 53 50 3.0 11.0 0.00 0.00 0.00 33 1025.5
20260507194637 52 0 2.0 7.0 0.00 0.00 0.00 30 1025.4
20260507194132 52 7 4.0 9.0 0.00 0.00 0.00 29 1025.5
20260507193630 52 7 6.0 13.0 0.00 0.00 0.00 30 1025.5
20260507193127 52 12 9.0 10.0 0.00 0.00 0.00 36 1025.8
20260507192623 53 353 7.0 11.0 0.00 0.00 0.00 34 1025.7
20260507192120 53 9 15.0 16.0 0.00 0.00 0.00 32 1025.8
20260507191615 52 315 2.0 11.0 0.00 0.00 0.00 32 1025.8
20260507191112 53 7 8.0 16.0 0.00 0.00 0.00 35 1025.7
20260507190610 53 1 9.0 15.0 0.00 0.00 0.00 29 1025.5
20260507190109 51 68 8.0 10.0 0.00 0.00 0.00 30 1025.7
20260507185607 51 41 1.0 13.0 0.00 0.00 0.00 28 1025.7
20260507185103 51 76 2.0 11.0 0.00 0.00 0.00 28 1025.8
20260507184601 52 331 8.0 16.0 0.00 0.00 0.00 31 1025.8
20260507184058 52 259 5.0 10.0 0.00 0.00 0.00 33 1025.7
20260507183554 52 304 4.0 6.0 0.00 0.00 0.00 28 1026.1
20260507183051 51 348 5.0 9.0 0.00 0.00 0.00 35 1026.1
20260507182548 50 30 5.0 13.0 0.00 0.00 0.00 27 1025.9
20260507182044 51 249 2.0 11.0 0.00 0.00 0.00 32 1026.1
20260507181541 52 291 7.0 9.0 0.00 0.00 0.00 31 1025.9
20260507181037 51 224 3.0 4.0 0.00 0.00 0.00 31 1025.9
20260507180533 49 82 1.0 9.0 0.00 0.00 0.00 30 1026.2
20260507180031 49 13 4.0 11.0 0.00 0.00 0.00 32 1026.2
20260507175526 48 66 6.0 7.0 0.00 0.00 0.00 32 1026.3
20260507175025 49 346 9.0 12.0 0.00 0.00 0.00 30 1026.2
20260507174521 49 317 4.0 10.0 0.00 0.00 0.00 31 1026.2
20260507174019 50 318 6.0 7.0 0.00 0.00 0.00 31 1026.2
20260507173515 48 306 2.0 5.0 0.00 0.00 0.00 29 1026.3
20260507173014 47 84 4.0 8.0 0.00 0.00 0.00 27 1026.5
20260507172509 48 359 4.0 9.0 0.00 0.00 0.00 28 1026.6
20260507172006 47 345 3.0 13.0 0.00 0.00 0.00 25 1026.6
20260507171501 48 48 7.0 11.0 0.00 0.00 0.00 26 1026.6
20260507170959 48 15 5.0 7.0 0.00 0.00 0.00 28 1026.5
20260507170455 48 11 6.0 9.0 0.00 0.00 0.00 24 1026.3
20260507165952 49 279 4.0 5.0 0.00 0.00 0.00 27 1026.7
20260507165448 48 92 3.0 7.0 0.00 0.00 0.00 27 1026.9
20260507164944 47 209 3.0 7.0 0.00 0.00 0.00 24 1026.7
20260507164441 47 217 2.0 6.0 0.00 0.00 0.00 30 1026.6
20260507163938 47 191 4.0 7.0 0.00 0.00 0.00 29 1026.6
20260507163435 47 296 5.0 9.0 0.00 0.00 0.00 27 1026.7
20260507162932 46 319 5.0 12.0 0.00 0.00 0.00 29 1026.9
20260507162427 45 224 4.0 11.0 0.00 0.00 0.00 29 1026.9
20260507161925 45 216 5.0 8.0 0.00 0.00 0.00 30 1026.9
20260507161420 45 252 2.0 10.0 0.00 0.00 0.00 34 1026.7
20260507160918 45 249 4.0 11.0 0.00 0.00 0.00 32 1026.7
20260507160414 46 136 3.0 6.0 0.00 0.00 0.00 32 1026.9
20260507155910 44 171 1.0 7.0 0.00 0.00 0.00 29 1026.9
20260507155406 44 238 4.0 6.0 0.00 0.00 0.00 31 1027.0
20260507154903 45 262 3.0 6.0 0.00 0.00 0.00 29 1027.0
20260507154400 43 295 3.0 8.0 0.00 0.00 0.00 29 1026.9
20260507153857 42 237 4.0 7.0 0.00 0.00 0.00 30 1026.9
20260507153353 42 254 9.0 9.0 0.00 0.00 0.00 27 1027.3
20260507152850 41 265 5.0 8.0 0.00 0.00 0.00 26 1027.0
20260507152347 41 281 3.0 7.0 0.00 0.00 0.00 25 1027.3
20260507151843 41 288 4.0 5.0 0.00 0.00 0.00 32 1027.1
20260507151339 41 8 3.0 7.0 0.00 0.00 0.00 30 1027.1
20260507150836 40 194 1.0 5.0 0.00 0.00 0.00 29 1027.0
20260507150333 40 338 1.0 6.0 0.00 0.00 0.00 29 1027.0
20260507145828 40 322 3.0 5.0 0.00 0.00 0.00 31 1027.1
20260507145325 39 310 2.0 4.0 0.00 0.00 0.00 30 1027.0
20260507144822 39 275 2.0 6.0 0.00 0.00 0.00 30 1027.0
20260507144320 39 240 1.0 7.0 0.00 0.00 0.00 30 1027.0
20260507143816 38 212 2.0 4.0 0.00 0.00 0.00 26 1026.9
20260507143314 38 199 2.0 3.0 0.00 0.00 0.00 28 1027.0
20260507142809 39 195 0.0 2.0 0.00 0.00 0.00 26 1026.9
20260507142307 39 214 1.0 4.0 0.00 0.00 0.00 27 1026.9
20260507141803 39 174 0.0 3.0 0.00 0.00 0.00 28 1027.0
20260507141300 39 126 2.0 4.0 0.00 0.00 0.00 28 1026.9
20260507140755 38 83 3.0 5.0 0.00 0.00 0.00 29 1026.9
20260507140253 36 100 3.0 7.0 0.00 0.00 0.00 34 1026.9
20260507135750 36 98 9.0 9.0 0.00 0.00 0.00 31 1026.7
20260507135247 37 97 3.0 5.0 0.00 0.00 0.00 38 1026.9
20260507134743 36 102 4.0 6.0 0.00 0.00 0.00 32 1026.9
20260507134240 35 60 4.0 6.0 0.00 0.00 0.00 34 1026.9
20260507133736 35 79 4.0 7.0 0.00 0.00 0.00 33 1026.6
20260507133233 33 71 7.0 7.0 0.00 0.00 0.00 35 1026.3
20260507132731 32 92 6.0 7.0 0.00 0.00 0.00 38 1026.3
20260507132227 32 83 4.0 7.0 0.00 0.00 0.00 38 1026.5
20260507131724 31 88 4.0 7.0 0.00 0.00 0.00 39 1026.5
20260507131221 30 86 5.0 8.0 0.00 0.00 0.00 40 1026.3
20260507130718 29 77 6.0 10.0 0.00 0.00 0.00 41 1026.2
20260507130216 28 85 6.0 9.0 0.00 0.00 0.00 41 1026.2
20260507125714 26 80 6.0 7.0 0.00 0.00 0.00 43 1025.9
20260507125212 24 85 5.0 7.0 0.00 0.00 0.00 49 1026.2
20260507124708 24 84 6.0 9.0 0.00 0.00 0.00 47 1026.2
20260507124205 24 96 5.0 10.0 0.00 0.00 0.00 48 1025.9
20260507123703 24 93 5.0 10.0 0.00 0.00 0.00 48 1026.2
20260507123200 24 83 8.0 9.0 0.00 0.00 0.00 49 1026.1
20260507122655 22 85 5.0 7.0 0.00 0.00 0.00 54 1025.9
20260507122151 24 65 6.0 6.0 0.00 0.00 0.00 46 1026.1
20260507121647 25 55 5.0 5.0 0.00 0.00 0.00 40 1025.8
20260507121143 24 38 2.0 3.0 0.00 0.00 0.00 43 1026.1
20260507120640 24 51 1.0 3.0 0.00 0.00 0.00 42 1026.1
20260507120137 25 75 5.0 6.0 0.00 0.00 0.00 42 1025.9
20260507115633 24 63 4.0 6.0 0.00 0.00 0.00 48 1025.9
20260507115128 23 76 5.0 7.0 0.00 0.00 0.00 53 1025.9
20260507114624 23 70 4.0 7.0 0.00 0.00 0.00 53 1025.8
20260507114122 24 82 6.0 8.0 0.00 0.00 0.00 52 1026.1
20260507113619 23 70 4.0 6.0 0.00 0.00 0.00 56 1025.9
20260507113116 21 64 6.0 7.0 0.00 0.00 0.00 62 1025.7
20260507112614 22 63 7.0 7.0 0.00 0.00 0.00 58 1025.9
20260507112110 21 60 8.0 11.0 0.00 0.00 0.00 61 1025.7
20260507111608 23 64 7.0 8.0 0.00 0.00 0.00 59 1025.8
20260507111104 23 78 7.0 8.0 0.00 0.00 0.00 59 1025.8
20260507110601 23 66 5.0 7.0 0.00 0.00 0.00 54 1025.7
20260507110057 25 77 3.0 4.0 0.00 0.00 0.00 47 1025.9
20260507105554 25 49 3.0 4.0 0.00 0.00 0.00 49 1026.3
20260507105050 24 54 3.0 4.0 0.00 0.00 0.00 52 1026.1
20260507104548 23 52 5.0 6.0 0.00 0.00 0.00 55 1026.3
20260507104044 23 32 0.0 4.0 0.00 0.00 0.00 55 1026.3
20260507103540 23 308 1.0 4.0 0.00 0.00 0.00 56 1026.3
20260507103037 23 302 2.0 3.0 0.00 0.00 0.00 58 1026.2
20260507102534 23 66 0.0 3.0 0.00 0.00 0.00 59 1026.2
20260507102031 22 54 3.0 3.0 0.00 0.00 0.00 62 1026.2
20260507101525 22 103 2.0 4.0 0.00 0.00 0.00 61 1026.5
20260507101022 23 184 3.0 3.0 0.00 0.00 0.00 60 1026.3
20260507100519 24 166 3.0 4.0 0.00 0.00 0.00 60 1026.6
20260507100017 24 119 2.0 5.0 0.00 0.00 0.00 63 1026.5
20260507095515 21 105 3.0 4.0 0.00 0.00 0.00 71 1026.2
20260507095011 21 87 4.0 6.0 0.00 0.00 0.00 71 1026.3
20260507094507 21 84 5.0 5.0 0.00 0.00 0.00 70 1026.3
20260507094005 23 82 4.0 6.0 0.00 0.00 0.00 67 1026.1
20260507093502 23 70 4.0 8.0 0.00 0.00 0.00 66 1026.3
20260507093001 23 77 9.0 10.0 0.00 0.00 0.00 67 1026.3
20260507092456 23 72 7.0 9.0 0.00 0.00 0.00 66 1026.2
20260507091954 24 77 8.0 12.0 0.00 0.00 0.00 65 1026.3
20260507091450 23 83 7.0 12.0 0.00 0.00 0.00 66 1026.2
20260507090946 23 86 6.0 10.0 0.00 0.00 0.00 63 1026.2
20260507090442 24 77 7.0 9.0 0.00 0.00 0.00 63 1026.2
20260507085939 25 79 5.0 9.0 0.00 0.00 0.00 61 1026.2
20260507085436 24 74 7.0 8.0 0.00 0.00 0.00 63 1026.2
20260507084933 24 50 4.0 8.0 0.00 0.00 0.00 63 1026.3
20260507084430 23 89 4.0 5.0 0.00 0.00 0.00 63 1026.7
20260507083927 24 103 3.0 5.0 0.00 0.00 0.00 64 1026.5
20260507083423 23 93 3.0 4.0 0.00 0.00 0.00 68 1026.5
20260507082919 22 74 4.0 5.0 0.00 0.00 0.00 69 1026.5
20260507082415 23 87 2.0 3.0 0.00 0.00 0.00 70 1026.5
20260507081912 23 62 1.0 3.0 0.00 0.00 0.00 69 1026.6
20260507081408 24 219 4.0 5.0 0.00 0.00 0.00 68 1026.6
20260507080905 24 99 6.0 9.0 0.00 0.00 0.00 67 1026.9
20260507080402 24 81 9.0 10.0 0.00 0.00 0.00 69 1026.6
20260507075857 24 38 5.0 9.0 0.00 0.00 0.00 69 1026.9
20260507075353 24 71 10.0 12.0 0.00 0.00 0.00 68 1026.6